Вернуться в каталог

CZ-3C DEB

АктивенGTO
NORAD 39600·DEBRIS·🇨🇳 China

Запущен Oct 31, 2010 с Xichang Satellite Launch Center

Loading…

TLE

УстаревшееSource: Space-Track

Эпоха: Sep 12, 2026, 07:12 UTC

1 39600U 10057X   26255.30065440 -.00000152  00000-0  18087-3 0  9999
2 39600  20.2240 300.3736 7222255  97.8741 341.8102  2.25364624105204

Отслеживайте CZ-3C DEB в реальном времени с AllMySat

Download on the App Store